Overview Statistics Trail Chart Weather Telemetry Raw packets
 

This is the latest recevied weather packets stored in our database for station/object ES0THZ-13. If no packets are shown the sender has not sent any weather packets the latest 10 day(s).

<< 14 15 16 17 18 19 20 >>
Time Temp. Humidity Pressure Rain* Wind** Luminosity Snow
1788223556 15.56° C 91% 1004.3 hPa - - - -
1788222520 15.56° C 90% 1004 hPa - - - -
1788221546 15.56° C 90% 1004.2 hPa - - - -
1788220440 15.56° C 90% 1004 hPa - - - -
1788219426 15.56° C 90% 1003.8 hPa - - - -
1788218416 15.56° C 90% 1004.7 hPa - - - -
1788217357 15.56° C 90% 1003.7 hPa - - - -
1788216225 15.56° C 90% 1004.9 hPa - - - -
1788215151 15.56° C 90% 1004.8 hPa - - - -
1788214096 15.56° C 90% 1005.1 hPa - - - -
1788213020 15° C 90% 1004.8 hPa - - - -
1788211911 15° C 89% 1004.5 hPa - - - -
1788210860 15° C 89% 1004.9 hPa - - - -
1788209691 15.56° C 89% 1004.6 hPa - - - -
1788208610 15.56° C 89% 1010 hPa - - - -
1788207593 15.56° C 89% 1004.3 hPa - - - -
1788206440 15.56° C 89% 1004.2 hPa - - - -
1788205356 16.11° C 88% 1004.4 hPa - - - -
1788204226 16.11° C 88% 1004.9 hPa - - - -
1788203164 16.67° C 88% 1004.1 hPa - - - -
1788202096 16.67° C 88% 1004.6 hPa - - - -
1788201020 16.11° C 88% 1004.3 hPa - - - -
1788199916 16.67° C 88% 1005.7 hPa - - - -
1788198880 16.67° C 88% 1005.1 hPa - - - -
1788197801 16.67° C 88% 1004.4 hPa - - - -

* Rain since midnight (hover to see other rain measurements)
** Current wind speed in m/s (hover to see current wind gust speed)